This demonstration page uses our WeatherBlox Daily Observations layout. Learn more.

Hourly Observations for March 31, 2017

Temp ( °F °C ) Dew Point ( °F °C ) Humidity (%) Winds ( mph kmh ) Pressure ( in mb ) Visibility ( mi km ) Precip ( " mm )
12:15 am 00:15 Cloudy 39 4.1 36 2 86 86 ENE 6 9 29.91 1013 10 16.0934 0 0
12:35 am 00:35 Cloudy 39 4.1 36 2.2 88 88 NE 7 11 29.91 1013 10 16.0934 0 0
12:55 am 00:55 Cloudy 39 4 36 2 87 87 ENE 3 6 29.91 1013 10 16.0934 0 0
1:15 am 01:15 Cloudy 39 4 36 2.1 88 88 NE 6 9 29.91 1013 10 16.0934 0 0
1:35 am 01:35 Cloudy 39 4 36 2.1 88 88 NNE 7 11 29.91 1013 10 16.0934 0 0
1:55 am 01:55 Cloudy 39 3.7 36 2 89 89 N 6 9 29.91 1013 10 16.0934 0 0
2:15 am 02:15 Cloudy 39 3.7 36 2 89 89 NNE 6 9 29.91 1013 10 16.0934 0 0
2:35 am 02:35 Cloudy 39 3.7 36 2 89 89 NE 8 13 29.91 1013 10 16.0934 0 0
2:55 am 02:55 Cloudy 38 3.6 35 1.9 89 89 NE 6 9 29.91 1013 10 16.0934 0 0
3:15 am 03:15 Cloudy 38 3.6 36 2 89 89 ENE 8 13 29.91 1013 10 16.0934 0 0
3:35 am 03:35 Cloudy 38 3.6 35 1.8 88 88 ENE 6 9 29.91 1013 10 16.0934 0 0
3:55 am 03:55 Cloudy 38 3.5 35 1.6 88 88 NE 6 9 29.94 1014 10 16.0934 0 0
4:15 am 04:15 Cloudy 38 3.5 35 1.5 87 87 N 3 6 29.94 1014 10 16.0934 0 0
4:35 am 04:35 Cloudy 38 3.5 35 1.6 88 88 NE 3 6 29.94 1014 10 16.0934 0 0
4:55 am 04:55 Cloudy 38 3.5 35 1.6 88 88 NE 5 7 29.94 1014 10 16.0934 0 0
5:15 am 05:15 Cloudy 38 3.5 35 1.5 87 87 NE 7 11 29.94 1014 10 16.0934 0 0
5:35 am 05:35 Cloudy 38 3.5 35 1.6 88 88 NE 8 13 29.94 1014 10 16.0934 0 0
5:55 am 05:55 Cloudy 38 3.5 35 1.9 89 89 NNE 8 13 29.94 1014 10 16.0934 0 0
6:15 am 06:15 Cloudy 39 3.7 35 1.7 87 87 NNE 7 11 29.94 1014 10 16.0934 0 0
6:35 am 06:35 Cloudy 39 3.7 35 1.8 88 88 NNE 5 7 29.97 1015 10 16.0934 0 0
6:55 am 06:55 Cloudy 39 3.7 35 1.8 88 88 Calm 29.97 1015 10 16.0934 0 0
7:15 am 07:15 Cloudy 39 3.7 36 2 89 89 N 3 6 29.97 1015 10 16.0934 0 0
7:35 am 07:35 Cloudy 39 3.7 36 2 89 89 N 3 6 29.97 1015 10 16.0934 0 0
7:55 am 07:55 Cloudy 39 4 36 2.2 88 88 NNE 7 11 29.97 1015 10 16.0934 0 0
8:15 am 08:15 Cloudy 39 4.1 36 2.3 88 88 NNE 8 13 30 1016 10 16.0934 0 0
8:35 am 08:35 Cloudy 40 4.3 37 2.8 90 90 NNE 7 11 30 1016 10 16.0934 0 0
8:55 am 08:55 Cloudy 40 4.5 37 3 90 90 N 8 13 30.03 1017 10 16.0934 0 0
9:15 am 09:15 Cloudy 40 4.5 37 3 90 90 NNE 9 15 30.03 1017 7 11.26538 0 0
9:35 am 09:35 Cloudy 40 4.7 37 2.9 88 88 NNE 6 9 30.06 1018 10 16.0934 0 0
9:55 am 09:55 Cloudy 41 4.8 37 2.5 85 85 NE 7 11 30.06 1018 10 16.0934 0 0
10:15 am 10:15 Cloudy 41 5 37 2.6 85 85 NE 7 11 30.06 1018 10 16.0934 0 0
10:35 am 10:35 Cloudy 41 5.2 37 3 86 86 NE 8 13 30.06 1018 10 16.0934 0 0
10:55 am 10:55 Cloudy 42 5.3 37 2.9 85 85 NE 9 15 30.06 1018 10 16.0934 0 0
11:15 am 11:15 Cloudy 42 5.4 37 3 85 85 NE 12 19 30.06 1018 10 16.0934 0 0
11:35 am 11:35 Cloudy 43 6 38 3.4 84 84 NE 13 20 30 1016 10 16.0934 0 0
11:55 am 11:55 Cloudy 43 6 38 3.2 82 82 NE 18 30 30 1016 10 16.0934 0 0
12:15 pm 12:15 Cloudy 44 6.5 39 3.7 83 83 NE 18 30 30 1016 10 16.0934 0 0
12:35 pm 12:35 Cloudy 42 5.5 38 3.5 87 87 NE 16 26 30.06 1018 10 16.0934 0 0
12:55 pm 12:55 Cloudy 42 5.6 39 3.7 88 88 NE 12 19 30.06 1018 7 11.26538 0 0
1:15 pm 13:15 Cloudy 42 5.6 38 3.5 87 87 NE 14 22 30.06 1018 7 11.26538 0 0
1:35 pm 13:35 Cloudy 43 6.2 38 3.4 82 82 NE 14 22 30.03 1017 10 16.0934 0 0
1:55 pm 13:55 Cloudy 44 6.5 38 3.1 79 79 ENE 14 22 30.03 1017 10 16.0934 0 0
2:15 pm 14:15 Cloudy 44 6.5 38 3.2 80 80 NE 14 22 30.03 1017 10 16.0934 0 0
2:35 pm 14:35 Cloudy 44 6.5 38 3.2 80 80 ENE 13 20 30.03 1017 10 16.0934 0 0
2:55 pm 14:55 Cloudy 44 6.5 38 3.1 79 79 ENE 15 24 30.03 1017 10 16.0934 0 0
3:15 pm 15:15 Cloudy 44 6.5 38 3.3 80 80 ENE 12 19 30.03 1017 10 16.0934 0 0
3:35 pm 15:35 Cloudy 44 6.8 38 3.3 79 79 E 12 19 30.03 1017 10 16.0934 0 0
3:55 pm 15:55 Cloudy 45 7.1 38 3.3 77 77 E 10 17 30.03 1017 10 16.0934 0 0
4:15 pm 16:15 Cloudy 45 7.1 38 3.4 78 78 ENE 9 15 30.03 1017 10 16.0934 0 0
4:35 pm 16:35 Cloudy 45 7.2 38 3.5 78 78 ENE 10 17 30.03 1017 10 16.0934 0 0
4:55 pm 16:55 Cloudy 45 7.1 38 3.3 77 77 ENE 10 17 30.03 1017 10 16.0934 0 0
5:15 pm 17:15 Cloudy 45 7.1 38 3.5 78 78 ENE 13 20 30.03 1017 10 16.0934 0 0
5:35 pm 17:35 Cloudy 45 7.2 38 3.3 77 77 E 8 13 30.03 1017 10 16.0934 0 0
5:55 pm 17:55 Cloudy 45 7.1 38 3.4 78 78 ENE 9 15 30.03 1017 10 16.0934 0 0
6:15 pm 18:15 Cloudy 45 7.2 39 3.7 79 79 ENE 9 15 30.03 1017 10 16.0934 0 0
6:35 pm 18:35 Cloudy 45 7.2 38 3.5 78 78 E 7 11 30.03 1017 10 16.0934 0 0
7:15 pm 19:15 Cloudy 45 7.2 39 4 80 80 NE 5 7 30.06 1018 10 16.0934 0 0
7:35 pm 19:35 Cloudy 45 7.1 40 4.3 83 83 NE 6 9 30.06 1018 10 16.0934 0 0
7:55 pm 19:55 Cloudy 45 7 40 4.3 83 83 NE 5 7 30.06 1018 10 16.0934 0 0
8:15 pm 20:15 Cloudy 45 7 40 4.3 83 83 NE 5 7 30.06 1018 10 16.0934 0 0
8:35 pm 20:35 Cloudy 44 6.8 40 4.5 85 85 NE 5 7 30.06 1018 10 16.0934 0 0
8:55 pm 20:55 Cloudy 44 6.7 40 4.5 86 86 NNE 3 6 30.09 1019 10 16.0934 0 0
9:15 pm 21:15 Cloudy 44 6.7 40 4.5 86 86 N 3 6 30.09 1019 10 16.0934 0 0
9:35 pm 21:35 Cloudy 44 6.7 40 4.5 86 86 Calm 30.09 1019 10 16.0934 0 0
9:55 pm 21:55 Cloudy 44 6.6 40 4.3 85 85 Calm 30.15 1021 10 16.0934 0 0
10:15 pm 22:15 Cloudy 44 6.5 40 4.5 87 87 Calm 30.15 1021 10 16.0934 0 0
10:35 pm 22:35 Cloudy 44 6.5 40 4.5 87 87 Calm 30.18 1022 10 16.0934 0 0
10:55 pm 22:55 Cloudy 44 6.5 40 4.3 86 86 N 3 6 30.18 1022 10 16.0934 0 0
11:15 pm 23:15 Cloudy 43 6.1 40 4.4 89 89 NNE 5 7 30.15 1021 10 16.0934 0 0
11:35 pm 23:35 Cloudy 43 6.2 40 4.3 88 88 NNE 5 7 30.18 1022 10 16.0934 0 0
11:55 pm 23:55 Cloudy 43 6.2 39 4.1 87 87 N 5 7 30.18 1022 10 16.0934 0 0

Powered by AerisWeather